Track NUDT-PHONESAT now! 10-day predictions NUDT-PHONESAT is classified as:
1 40900U 15049B 22142.05198402 .00039548 00000-0 11740-2 0 9996 2 40900 97.4013 159.9108 0009989 37.1961 22.9892 15.34643424370563